Regional Weather Roundup
Issued by NWS

Home | Current Version | Previous Version | Graphics & Text | Print | Product List | Glossary On
Versions: 1 2 3 4 5 6 7 8 9 10 11 12 13 14 15 16 17 18 19 20 21 22 23 24 25 26 27 28 29 30 31 32 33 34 35 36 37 38 39 40 41 42 43 44 45 46 47 48 49 50
000
ASUS43 KMPX 062001
RWRMN
WEATHER ROUNDUP FOR MINNESOTA
NATIONAL WEATHER SERVICE TWIN CITIES/CHANHASSEN MN
200 PM CST TUE DEC 06 2016


NOTE: "FAIR" INDICATES FEW OR NO CLOUDS BELOW 12,000 FEET WITH NO
SIGNIFICANT WEATHER AND/OR OBSTRUCTIONS TO VISIBILITY. N/A MEANS
CURRENT SKY AND/OR WEATHER CONDITIONS ARE NOT AVAILABLE.

MNZ060>063-068>070-062100-
   Twin Cities Metro

CITY           SKY/WX    TMP DP  RH WIND       PRES   REMARKS
TWIN CITIES    FLURRIES  23  12  62 SW17G26   29.70S WCI   9
ST PAUL        FLURRIES  23  14  68 SW14G28   29.72S WCI  11
CRYSTAL        FLURRIES  23  11  60 SW17G30   29.67F WCI   9
BLAINE         FLURRIES  25  16  68 SW18G32   29.66F WCI  11
LAKEVILLE      CLOUDY    21  16  79 W14G23    29.72R WCI   8
EDEN PRAIRIE   FLURRIES  23  12  62 SW24G32   29.69S WCI   7
SOUTH ST PAUL  FLURRIES  24  14  65 SW16G25   29.71S WCI  11
LAKE ELMO      FLURRIES  23  16  74 SW17G28   29.70S WCI   9
$$
MNZ001>005-007-008-013>017-022>024-027-028-062100-
   Northwest Minnesota

CITY           SKY/WX    TMP DP  RH WIND       PRES   REMARKS
BEMIDJI        LGT SNOW  24  20  85 S14G20    29.27S WCI  12
HALLOCK        LGT SNOW  25  21  86 NW6       29.41R WCI  18
ROSEAU         LGT SNOW  23  18  80 CALM      29.37R
WARROAD        CLOUDY    23  18  80 E3        29.37R
THIEF RVR FALL FLURRIES  23  19  85 NW14      29.36R WCI  11
CROOKSTON      LGT SNOW  23  21  93 NW17      29.39R WCI   9
FOSSTON        FLURRIES  25  25 100 W16       29.28R WCI  12
DETROIT LAKES  SNOW      21  19  93 W26G36    29.40R VSB 1/2 WCI   4
MOORHEAD       RAIN      19  18  93 W37G45    29.49R VSB 1/2 WCI  -1
PARK RAPIDS    LGT SNOW  22  15  75 SW22      29.36S VSB 3/4 WCI   6
$$
MNZ006-009>011-018-025>026-062100-
   North Central Minnesota

CITY           SKY/WX    TMP DP  RH WIND       PRES   REMARKS
BAUDETTE       FLURRIES  22  16  78 SE9       29.35S WCI  12
FLAG ISLAND    FLURRIES  25  19  80 SE9       29.37S WCI  15
INTL FALLS     LGT SNOW  22  15  75 S6        29.39S WCI  14
WASKISH        LGT SNOW  23  19  86 SE9       29.32S WCI  13
BIG FORK       LGT SNOW  21  18  86 SE13      29.36F VSB 3/4 WCI   9
LONGVILLE      LGT SNOW  23  19  86 S13G21    29.38S VSB 1   WCI  11
GRAND RAPIDS   LGT SNOW  21  16  81 S16G23    29.41F WCI   7
CRANE LAKE     FLURRIES  21  16  79 S7        29.44F WCI  13
ORR            LGT SNOW  21  14  73 S8G16     29.39S WCI  12
COOK           FLURRIES  21  14  73 S13G20    29.43S WCI   9
$$
MNZ012-019>021-037-062100-
   Northeast Minnesota

CITY           SKY/WX    TMP DP  RH WIND       PRES   REMARKS
DULUTH         LGT SNOW  20  15  81 SW20G28   29.49F BLWGSNOWWCI   4
ELY            FLURRIES  21  16  79 S9G16     29.44S WCI  11
HIBBING        LGT SNOW  19  14  81 S9G18     29.43F WCI   8
EVELETH        MIX PCPN  22  15  74 S13G22    29.46S WCI  10
DULUTH HARBOR  FLURRIES  25  18  74 SW17G28   29.56S WCI  11
TWO HARBORS    CLOUDY    25  18  74 SW17G25   29.50S WCI  11
SILVER BAY     CLOUDY    25  19  80 SW14G20   29.49S WCI  13
GRAND MARAIS     N/A     33  27  78 SW25      29.52S WCI  20
G MARAIS ARPRT CLOUDY    25  19  80 S10G18    29.45  WCI  15
$$
MNZ029>031-032-039>041-046>048-054>057-064-062100-
   West Central Minnesota

CITY           SKY/WX    TMP DP  RH WIND       PRES   REMARKS
FERGUS FALLS   LGT SNOW  19  16  86 W30G44    29.59R VSB 3/4 WCI   0
WHEATON        LGT SNOW  19  18  93 W24G37    29.67R WCI   2
MORRIS         FLURRIES  19  14  79 W29G44    29.64R WCI   1
ALEXANDRIA     SNOW      19  15  84 W29G38    29.57R VSB 1/2 WCI   0
ELBOW LAKE     SNOW      18  16  91 W35G48    29.59R VSB 1/2 WCI  -3
WADENA         LGT SNOW  19  16  86 SW18G30   29.45S VSB 3/4 WCI   4
GLENWOOD       LGT SNOW  19  16  86 W28G40    29.60R VSB 1   WCI   1
APPLETON       LGT SNOW  21  12  68 W32G45    29.69R WCI   2
BENSON         FLURRIES  21  12  68 NW30G39   29.67R WCI   3
ORTONVILLE     CLOUDY    18  10  73 W28G38    29.70R WCI  -1
MADISON        CLOUDY    25  12  58 W35G44    29.74S WCI   7
WILLMAR        LGT SNOW  21  16  79 W32G39    29.68S WCI   2
$$
MNZ033>034-036-042>043-049>051-058-059-062100-
   Central Minnesota

CITY           SKY/WX    TMP DP  RH WIND       PRES   REMARKS
ST CLOUD       LGT SNOW  22  17  81 W20G31    29.61S WCI   7
PAYNESVILLE    LGT SNOW  21  16  79 W25       29.64F WCI   4
AITKIN         LGT SNOW  25  16  68 SW14G23   29.45S WCI  13
PINE RIVER     LGT SNOW  21  18  86 SW14G26   29.46S WCI   8
BRAINERD       LGT SNOW  22  16  78 SW24G32   29.48R VSB 1   WCI   5
STAPLES        LGT SNOW  19  16  86 SW21G26   29.47S WCI   3
LONG PRAIRIE   LGT SNOW  19  16  86 S20G30    29.55S WCI   4
LITTLE FALLS   LGT SNOW  23  16  74 SW12G31   29.55S WCI  12
LITCHFIELD     FLURRIES  23  16  74 W14G28    29.67S WCI  11
BUFFALO        CLOUDY    23  14  68 SW17G30   29.67S WCI   9
MAPLE LAKE     CLOUDY    24  17  74 SW17G25   29.66S WCI  10
HUTCHINSON     CLOUDY    23  16  74 SW23G31   29.70S WCI   7
$$
MNZ037-044-045-052-053-062100-
   East Central Minnesota

CITY           SKY/WX    TMP DP  RH WIND       PRES   REMARKS
PRINCETON      FLURRIES  25  16  68 SW13G25   29.60F WCI  13
MORA           FLURRIES  23  14  68 SW15G25   29.59S WCI  10
CAMBRIDGE      FLURRIES  25  14  63 SW13G26   29.61S WCI  13
RUSH CITY      CLOUDY    23  14  68 SW17G24   29.62S WCI   9
MOOSE LAKE     FLURRIES  23  16  74 SW17G24   29.51F WCI   9
HINCKLEY       FLURRIES  23  18  80 SW18G24   29.58S WCI   9
CLOQUET        FLURRIES  21  12  68 S15G25    29.50F WCI   8
MCGREGOR       CLOUDY    23  19  86 S17G25    29.48F WCI   9
$$
MNZ071>073-080-081-089-090-097-098-062100-
   Southwest Minnesota

CITY           SKY/WX    TMP DP  RH WIND       PRES   REMARKS
MONTEVIDEO       N/A    N/A N/A N/A NW22G29   29.74R
GRANITE FALLS  CLOUDY    24  14  67 W33G44    29.76R WCI   6
CANBY          SUNNY     21  10  63 NW30G48   29.77S WCI   2
MARSHALL       FLURRIES  20  11  68 W33G44    29.75  WCI   0
REDWOOD FALLS  CLOUDY    22  10  60 W25G39    29.74S WCI   5
OLIVIA         MOSUNNY   23  14  68 W29G36    29.70S WCI   6
PIPESTONE      FLURRIES  19  10  68 NW28G41   29.80R WCI   1
WINDOM         PTSUNNY   21  12  68 W33       29.77R WCI   2
WORTHINGTON    FLURRIES  21  12  68 W30G40    29.79S WCI   3
JACKSON        CLOUDY    23  12  63 W25G39    29.79S WCI   7
TRACY          PTSUNNY   22  13  67 W20G31    29.78R WCI   7
SLAYTON        PTSUNNY   20  11  70 W26G43    29.77R WCI   2
$$
MNZ065>067-074>077-082>085-091>093-062100-
   South Central Minnesota

CITY           SKY/WX    TMP DP  RH WIND       PRES   REMARKS
MANKATO        FLURRIES  22  13  68 W29G35    29.75R WCI   4
NEW ULM        CLOUDY    21  12  68 W30G38    29.75S WCI   3
ST JAMES       CLOUDY    23  12  63 W22G36    29.79R WCI   8
FAIRMONT       CLOUDY    23  13  65 W30G41    29.80S WCI   5
FARIBAULT      FLURRIES  23  16  74 SW15G23   29.75R WCI  10
OWATONNA       FLURRIES  23  14  68 SW21G29   29.75S WCI   8
WASECA         CLOUDY    23  18  80 SW26G32   29.77S WCI   6
ALBERT LEA     CLOUDY    27  18  69 W16G28    29.77S WCI  14
$$
MNZ078>079-086>088-094>096-062100-
   Southeast Minnesota

CITY           SKY/WX    TMP DP  RH WIND       PRES   REMARKS
ROCHESTER      CLOUDY    22  16  78 W24       29.75R WCI   5
RED WING       CLOUDY    25  12  58 W14G25    29.72F WCI  13
STANTON        CLOUDY    24  15  66 W13G26    29.73S WCI  13
DODGE CENTER   FLURRIES  21  16  79 W24G35    29.74R WCI   4
WINONA         FLURRIES  28  19  69 W12G20    29.78  WCI  18
AUSTIN         CLOUDY    23  16  74 W18G30    29.77S WCI   9
PRESTON        CLOUDY    22  15  74 W17G28    29.77S WCI   8
$$
ABBREVIATIONS USED IN REMARKS
   TC - TEMPERATURES IN CELSIUS
  WCI - WIND CHILL INDEX
   HX - HEAT INDEX
  VSB - VISIBILITY
$$




USA.gov is the U.S. government's official web portal to all federal, state and local government web resources and services.